Year,Month,Day,Hour,Minute,Value (Times are PST for temperature in C)
2019,04,05,00,00,10.20
2019,04,05,00,01,10.20
2019,04,05,00,02,10.20
2019,04,05,00,03,10.20
2019,04,05,00,04,10.20
2019,04,05,00,05,10.20
2019,04,05,00,06,10.30
2019,04,05,00,07,10.30
2019,04,05,00,09,10.30
2019,04,05,00,10,10.30
2019,04,05,00,11,10.30
2019,04,05,00,12,10.30
2019,04,05,00,13,10.40
2019,04,05,00,14,10.40
2019,04,05,00,15,10.40
2019,04,05,00,16,10.40
2019,04,05,00,17,10.40
2019,04,05,00,18,10.40
2019,04,05,00,19,10.40
2019,04,05,00,20,10.40
2019,04,05,00,21,10.40
2019,04,05,00,22,10.40
2019,04,05,00,23,10.40
2019,04,05,00,24,10.40
2019,04,05,00,25,10.40
2019,04,05,00,26,10.40
2019,04,05,00,27,10.40
2019,04,05,00,28,10.40
2019,04,05,00,29,10.40
2019,04,05,00,30,10.40
2019,04,05,00,32,10.40
2019,04,05,00,33,10.40
2019,04,05,00,34,10.40
2019,04,05,00,35,10.40
2019,04,05,00,36,10.40
2019,04,05,00,37,10.40
2019,04,05,00,38,10.40
2019,04,05,00,39,10.40
2019,04,05,00,40,10.40
2019,04,05,00,41,10.40
2019,04,05,00,42,10.40
2019,04,05,00,43,10.40
2019,04,05,00,44,10.40
2019,04,05,00,45,10.60
2019,04,05,00,46,10.60
2019,04,05,00,47,10.60
2019,04,05,00,48,10.60
2019,04,05,00,49,10.60
2019,04,05,00,50,10.60
2019,04,05,00,51,10.60
2019,04,05,00,52,10.60
2019,04,05,00,53,10.60
2019,04,05,00,54,10.60
2019,04,05,00,55,10.60
2019,04,05,00,56,10.60
2019,04,05,00,57,10.60
2019,04,05,00,58,10.60
2019,04,05,00,59,10.60
2019,04,05,01,00,10.60
2019,04,05,01,01,10.60
2019,04,05,01,02,10.60
2019,04,05,01,03,10.60
2019,04,05,01,04,10.60
2019,04,05,01,05,10.60
2019,04,05,01,06,10.60
2019,04,05,01,07,10.60
2019,04,05,01,08,10.60
2019,04,05,01,09,10.60
2019,04,05,01,10,10.60
2019,04,05,01,11,10.60
2019,04,05,01,12,10.60
2019,04,05,01,13,10.60
2019,04,05,01,14,10.60
2019,04,05,01,15,10.60
2019,04,05,01,16,10.60
2019,04,05,01,17,10.60
2019,04,05,01,18,10.70
2019,04,05,01,19,10.70
2019,04,05,01,20,10.70
2019,04,05,01,21,10.70
2019,04,05,01,22,10.70
2019,04,05,01,23,10.70
2019,04,05,01,24,10.70
2019,04,05,01,25,10.70
2019,04,05,01,26,10.70
2019,04,05,01,27,10.70
2019,04,05,01,28,10.60
2019,04,05,01,29,10.60
2019,04,05,01,30,10.60
2019,04,05,01,31,10.60
2019,04,05,01,32,10.60
2019,04,05,01,33,10.60
2019,04,05,01,34,10.60
2019,04,05,01,35,10.60
2019,04,05,01,36,10.60
2019,04,05,01,37,10.60
2019,04,05,01,38,10.60
2019,04,05,01,39,10.60
2019,04,05,01,40,10.60
2019,04,05,01,41,10.60
2019,04,05,01,42,10.60
2019,04,05,01,43,10.60
2019,04,05,01,44,10.60
2019,04,05,01,45,10.60
2019,04,05,01,46,10.60
2019,04,05,01,47,10.60
2019,04,05,01,48,10.40
2019,04,05,01,49,10.40
2019,04,05,01,50,10.40
2019,04,05,01,51,10.40
2019,04,05,01,52,10.40
2019,04,05,01,53,10.40
2019,04,05,01,54,10.40
2019,04,05,01,55,10.40
2019,04,05,01,56,10.40
2019,04,05,01,57,10.40
2019,04,05,01,58,10.40
2019,04,05,01,59,10.40
2019,04,05,02,00,10.40
2019,04,05,02,01,10.40
2019,04,05,02,02,10.40
2019,04,05,02,03,10.40
2019,04,05,02,04,10.30
2019,04,05,02,05,10.30
2019,04,05,02,06,10.30
2019,04,05,02,07,10.30
2019,04,05,02,08,10.30
2019,04,05,02,09,10.30
2019,04,05,02,10,10.30
2019,04,05,02,11,10.30
2019,04,05,02,12,10.30
2019,04,05,02,13,10.30
2019,04,05,02,14,10.40
2019,04,05,02,15,10.40
2019,04,05,02,16,10.40
2019,04,05,02,17,10.40
2019,04,05,02,18,10.40
2019,04,05,02,19,10.40
2019,04,05,02,20,10.60
2019,04,05,02,21,10.60
2019,04,05,02,22,10.60
2019,04,05,02,23,10.70
2019,04,05,02,24,10.70
2019,04,05,02,25,10.70
2019,04,05,02,26,10.80
2019,04,05,02,27,10.80
2019,04,05,02,28,10.80
2019,04,05,02,29,10.90
2019,04,05,02,30,10.90
2019,04,05,02,31,10.90
2019,04,05,02,32,10.80
2019,04,05,02,33,10.80
2019,04,05,02,34,10.80
2019,04,05,02,35,10.80
2019,04,05,02,36,10.70
2019,04,05,02,37,10.70
2019,04,05,02,38,10.70
2019,04,05,02,39,10.60
2019,04,05,02,40,10.60
2019,04,05,02,41,10.60
2019,04,05,02,42,10.60
2019,04,05,02,43,10.40
2019,04,05,02,44,10.40
2019,04,05,02,45,10.40
2019,04,05,02,46,10.30
2019,04,05,02,47,10.20
2019,04,05,02,49,10.20
2019,04,05,02,50,10.10
2019,04,05,02,52,10.10
2019,04,05,02,53,10.10
2019,04,05,02,54,10.10
2019,04,05,02,56,10.10
2019,04,05,02,57,10.10
2019,04,05,02,58,10.10
2019,04,05,02,59,10.10
2019,04,05,03,01,10.10
2019,04,05,03,02,10.10
2019,04,05,03,03,10.10
2019,04,05,03,04,10.10
2019,04,05,03,06,9.90
2019,04,05,03,07,9.90
2019,04,05,03,08,9.90
2019,04,05,03,09,9.90
2019,04,05,03,11,9.90
2019,04,05,03,12,9.90
2019,04,05,03,13,9.90
2019,04,05,03,14,9.90
2019,04,05,03,16,9.90
2019,04,05,03,17,9.90
2019,04,05,03,18,9.90
2019,04,05,03,19,9.90
2019,04,05,03,21,9.90
2019,04,05,03,22,9.90
2019,04,05,03,23,9.90
2019,04,05,03,24,9.90
2019,04,05,03,26,9.90
2019,04,05,03,27,9.90
2019,04,05,03,28,9.90
2019,04,05,03,29,9.90
2019,04,05,03,31,10.10
2019,04,05,03,32,10.10
2019,04,05,03,33,10.10
2019,04,05,03,34,9.90
2019,04,05,03,36,9.90
2019,04,05,03,37,9.90
2019,04,05,03,38,9.90
2019,04,05,03,39,10.10
2019,04,05,03,41,10.10
2019,04,05,03,42,10.10
2019,04,05,03,43,10.10
2019,04,05,03,44,10.10
2019,04,05,03,46,10.10
2019,04,05,03,47,10.10
2019,04,05,03,48,10.10
2019,04,05,03,49,10.10
2019,04,05,03,51,10.10
2019,04,05,03,52,10.20
2019,04,05,03,53,10.20
2019,04,05,03,54,10.20
2019,04,05,03,56,10.30
2019,04,05,03,57,10.30
2019,04,05,03,58,10.40
2019,04,05,03,59,10.40
2019,04,05,04,01,10.40
2019,04,05,04,02,10.40
2019,04,05,04,03,10.60
2019,04,05,04,04,10.60
2019,04,05,04,06,10.60
2019,04,05,04,07,10.60
2019,04,05,04,08,10.60
2019,04,05,04,09,10.60
2019,04,05,04,11,10.60
2019,04,05,04,12,10.60
2019,04,05,04,13,10.60
2019,04,05,04,14,10.60
2019,04,05,04,15,10.60
2019,04,05,04,16,10.60
2019,04,05,04,17,10.60
2019,04,05,04,18,10.60
2019,04,05,04,19,10.60
2019,04,05,04,20,10.60
2019,04,05,04,21,10.60
2019,04,05,04,22,10.60
2019,04,05,04,23,10.60
2019,04,05,04,24,10.60
2019,04,05,04,25,10.60
2019,04,05,04,26,10.40
2019,04,05,04,27,10.40
2019,04,05,04,28,10.40
2019,04,05,04,29,10.40
2019,04,05,04,30,10.40
2019,04,05,04,31,10.40
2019,04,05,04,32,10.40
2019,04,05,04,33,10.40
2019,04,05,04,34,10.30
2019,04,05,04,35,10.30
2019,04,05,04,36,10.30
2019,04,05,04,37,10.30
2019,04,05,04,38,10.30
2019,04,05,04,39,10.30
2019,04,05,04,40,10.20
2019,04,05,04,41,10.20
2019,04,05,04,42,10.20
2019,04,05,04,43,10.20
2019,04,05,04,44,10.20
2019,04,05,04,45,10.20
2019,04,05,04,46,10.20
2019,04,05,04,47,10.20
2019,04,05,04,48,10.10
2019,04,05,04,49,10.10
2019,04,05,04,50,10.10
2019,04,05,04,51,10.10
2019,04,05,04,52,10.10
2019,04,05,04,53,10.10
2019,04,05,04,54,10.10
2019,04,05,04,55,10.10
2019,04,05,04,56,10.10
2019,04,05,04,57,10.10
2019,04,05,04,58,10.10
2019,04,05,04,59,10.10
2019,04,05,05,00,10.10
2019,04,05,05,01,10.10
2019,04,05,05,02,10.10
2019,04,05,05,03,10.10
2019,04,05,05,04,10.10
2019,04,05,05,05,10.10
2019,04,05,05,06,10.10
2019,04,05,05,07,10.10
2019,04,05,05,08,10.10
2019,04,05,05,09,10.10
2019,04,05,05,10,10.10
2019,04,05,05,11,10.10
2019,04,05,05,12,10.10
2019,04,05,05,13,9.90
2019,04,05,05,14,10.10
2019,04,05,05,15,9.90
2019,04,05,05,16,9.90
2019,04,05,05,17,9.90
2019,04,05,05,18,9.90
2019,04,05,05,19,9.90
2019,04,05,05,20,9.90
2019,04,05,05,21,9.90
2019,04,05,05,22,9.90
2019,04,05,05,23,9.90
2019,04,05,05,24,9.90
2019,04,05,05,25,9.90
2019,04,05,05,26,9.90
2019,04,05,05,27,9.90
2019,04,05,05,28,9.90
2019,04,05,05,29,9.90
2019,04,05,05,30,9.90
2019,04,05,05,31,9.90
2019,04,05,05,32,9.90
2019,04,05,05,33,9.90
2019,04,05,05,34,9.90
2019,04,05,05,35,9.90
2019,04,05,05,36,9.90
2019,04,05,05,37,9.90
2019,04,05,05,38,9.90
2019,04,05,05,39,9.90
2019,04,05,05,40,9.90
2019,04,05,05,41,9.90
2019,04,05,05,42,9.90
2019,04,05,05,43,9.90
2019,04,05,05,44,9.90
2019,04,05,05,45,9.90
2019,04,05,05,46,9.90
2019,04,05,05,47,9.90
2019,04,05,05,48,9.90
2019,04,05,05,49,9.90
2019,04,05,05,50,9.90
2019,04,05,05,51,9.90
2019,04,05,05,52,9.90
2019,04,05,05,53,9.90
2019,04,05,05,54,9.90
2019,04,05,05,55,9.90
2019,04,05,05,56,9.90
2019,04,05,05,57,9.90
2019,04,05,05,58,9.90
2019,04,05,05,59,9.90
2019,04,05,06,00,9.90
2019,04,05,06,01,9.90
2019,04,05,06,02,9.90
2019,04,05,06,03,9.90
2019,04,05,06,04,9.90
2019,04,05,06,05,9.90
2019,04,05,06,06,9.90
2019,04,05,06,07,10.10
2019,04,05,06,08,10.10
2019,04,05,06,09,10.10
2019,04,05,06,10,10.10
2019,04,05,06,11,10.10
2019,04,05,06,12,10.10
2019,04,05,06,13,10.10
2019,04,05,06,14,10.20
2019,04,05,06,15,10.20
2019,04,05,06,16,10.20
2019,04,05,06,17,10.20
2019,04,05,06,18,10.20
2019,04,05,06,19,10.20
2019,04,05,06,20,10.20
2019,04,05,06,21,10.20
2019,04,05,06,22,10.20
2019,04,05,06,23,10.30
2019,04,05,06,24,10.30
2019,04,05,06,25,10.30
2019,04,05,06,26,10.30
2019,04,05,06,27,10.30
2019,04,05,06,28,10.30
2019,04,05,06,29,10.30
2019,04,05,06,30,10.30
2019,04,05,06,32,10.30
2019,04,05,06,33,10.30
2019,04,05,06,34,10.20
2019,04,05,06,35,10.20
2019,04,05,06,36,10.20
2019,04,05,06,37,10.10
2019,04,05,06,38,10.10
2019,04,05,06,39,10.10
2019,04,05,06,40,10.10
2019,04,05,06,41,10.10
2019,04,05,06,42,10.10
2019,04,05,06,43,10.10
2019,04,05,06,44,10.10
2019,04,05,06,45,10.10
2019,04,05,06,46,10.10
2019,04,05,06,47,10.10
2019,04,05,06,48,10.10
2019,04,05,06,49,10.10
2019,04,05,06,50,10.10
2019,04,05,06,51,10.10
2019,04,05,06,52,10.10
2019,04,05,06,53,10.10
2019,04,05,06,54,10.10
2019,04,05,06,55,10.10
2019,04,05,06,56,10.10
2019,04,05,06,57,10.10
2019,04,05,06,58,10.10
2019,04,05,06,59,10.10
2019,04,05,07,00,10.10
2019,04,05,07,01,10.10
2019,04,05,07,02,10.10
2019,04,05,07,03,10.10
2019,04,05,07,04,10.10
2019,04,05,07,05,9.90
2019,04,05,07,06,9.90
2019,04,05,07,07,9.90
2019,04,05,07,08,9.90
2019,04,05,07,09,9.90
2019,04,05,07,10,9.90
2019,04,05,07,11,9.90
2019,04,05,07,12,9.90
2019,04,05,07,13,9.90
2019,04,05,07,14,9.90
2019,04,05,07,15,9.90
2019,04,05,07,16,9.90
2019,04,05,07,17,9.90
2019,04,05,07,18,9.90
2019,04,05,07,19,9.90
2019,04,05,07,20,9.90
2019,04,05,07,21,9.90
2019,04,05,07,22,9.90
2019,04,05,07,23,9.80
2019,04,05,07,24,9.80
2019,04,05,07,25,9.80
2019,04,05,07,26,9.90
2019,04,05,07,27,9.90
2019,04,05,07,28,9.90
2019,04,05,07,29,9.90
2019,04,05,07,30,9.90
2019,04,05,07,31,9.90
2019,04,05,07,32,9.90
2019,04,05,07,33,9.90
2019,04,05,07,34,9.90
2019,04,05,07,35,9.90
2019,04,05,07,36,9.90
2019,04,05,07,37,9.80
2019,04,05,07,38,9.80
2019,04,05,07,39,9.90
2019,04,05,07,40,9.90
2019,04,05,07,41,9.90
2019,04,05,07,42,9.90
2019,04,05,07,43,9.90
2019,04,05,07,44,9.90
2019,04,05,07,45,9.90
2019,04,05,07,46,9.90
2019,04,05,07,47,9.90
2019,04,05,07,49,9.90
2019,04,05,07,51,9.90
2019,04,05,07,53,9.90
2019,04,05,07,54,9.90
2019,04,05,07,56,9.90
2019,04,05,07,57,9.90
2019,04,05,07,58,9.90
2019,04,05,07,59,9.90
2019,04,05,08,01,9.90
2019,04,05,08,02,9.90
2019,04,05,08,03,9.90
2019,04,05,08,04,9.90
2019,04,05,08,06,9.90
2019,04,05,08,07,9.90
2019,04,05,08,08,9.90
2019,04,05,08,09,9.90
2019,04,05,08,11,9.90
2019,04,05,08,12,9.90
2019,04,05,08,13,9.90
2019,04,05,08,14,9.90
2019,04,05,08,16,9.90
2019,04,05,08,17,9.90
2019,04,05,08,18,9.90
2019,04,05,08,19,9.90
2019,04,05,08,21,9.90
2019,04,05,08,22,9.90
2019,04,05,08,23,9.90
2019,04,05,08,24,9.90
2019,04,05,08,26,9.90
2019,04,05,08,27,9.90
2019,04,05,08,28,9.90
2019,04,05,08,29,9.90
2019,04,05,08,31,9.90
2019,04,05,08,32,9.90
2019,04,05,08,33,9.90
2019,04,05,08,34,9.90
2019,04,05,08,36,9.90
2019,04,05,08,37,9.90
2019,04,05,08,38,9.90
2019,04,05,08,39,9.90
2019,04,05,08,41,9.90
2019,04,05,08,42,9.90
2019,04,05,08,43,9.90
2019,04,05,08,44,9.90
2019,04,05,08,46,9.90
2019,04,05,08,47,9.80
2019,04,05,08,48,9.80
2019,04,05,08,49,9.80
2019,04,05,08,51,9.80
2019,04,05,08,52,9.80
2019,04,05,08,53,9.80
2019,04,05,08,54,9.80
2019,04,05,08,56,9.80
2019,04,05,08,57,9.80
2019,04,05,08,58,9.80
2019,04,05,08,59,9.80
2019,04,05,09,01,9.70
2019,04,05,09,02,9.70
2019,04,05,09,03,9.70
2019,04,05,09,04,9.70
2019,04,05,09,06,9.70
2019,04,05,09,07,9.70
2019,04,05,09,08,9.70
2019,04,05,09,09,9.70
2019,04,05,09,11,9.70
2019,04,05,09,12,9.70
2019,04,05,09,13,9.70
2019,04,05,09,14,9.70
2019,04,05,09,16,9.70
2019,04,05,09,17,9.70
2019,04,05,09,18,9.70
2019,04,05,09,19,9.70
2019,04,05,09,21,9.70
2019,04,05,09,22,9.70
2019,04,05,09,23,9.70
2019,04,05,09,24,9.80
2019,04,05,09,25,9.80
2019,04,05,09,26,9.80
2019,04,05,09,27,9.80
2019,04,05,09,28,9.90
2019,04,05,09,29,9.90
2019,04,05,09,30,9.90
2019,04,05,09,31,9.90
2019,04,05,09,32,9.90
2019,04,05,09,33,9.90
2019,04,05,09,34,9.90
2019,04,05,09,35,9.90
2019,04,05,09,36,9.90
2019,04,05,09,37,9.90
2019,04,05,09,38,9.90
2019,04,05,09,39,9.90
2019,04,05,09,40,9.90
2019,04,05,09,41,9.90
2019,04,05,09,42,9.90
2019,04,05,09,43,9.90
2019,04,05,09,44,9.90
2019,04,05,09,45,9.90
2019,04,05,09,46,9.90
2019,04,05,09,47,9.90
2019,04,05,09,48,9.90
2019,04,05,09,49,9.90
2019,04,05,09,50,9.90
2019,04,05,09,51,9.90
2019,04,05,09,52,9.90
2019,04,05,09,53,9.90
2019,04,05,09,54,9.90
2019,04,05,09,55,9.90
2019,04,05,09,56,9.90
2019,04,05,09,57,9.90
2019,04,05,09,58,9.90
2019,04,05,09,59,9.90
2019,04,05,10,00,9.90
2019,04,05,10,01,9.90
2019,04,05,10,02,9.90
2019,04,05,10,03,9.90
2019,04,05,10,04,9.90
2019,04,05,10,05,9.90
2019,04,05,10,06,9.90
2019,04,05,10,07,9.90
2019,04,05,10,08,9.90
2019,04,05,10,09,9.90
2019,04,05,10,10,9.90
2019,04,05,10,11,9.90
2019,04,05,10,12,9.90
2019,04,05,10,13,9.90
2019,04,05,10,14,9.90
2019,04,05,10,15,9.90
2019,04,05,10,16,9.90
2019,04,05,10,17,9.90
2019,04,05,10,18,9.90
2019,04,05,10,19,10.10
2019,04,05,10,20,10.10
2019,04,05,10,21,10.10
2019,04,05,10,22,10.10
2019,04,05,10,23,10.10
2019,04,05,10,24,10.10
2019,04,05,10,25,10.10
2019,04,05,10,26,10.20
2019,04,05,10,27,10.20
2019,04,05,10,28,10.20
2019,04,05,10,29,10.30
2019,04,05,10,30,10.30
2019,04,05,10,31,10.30
2019,04,05,10,32,10.30
2019,04,05,10,33,10.40
2019,04,05,10,34,10.40
2019,04,05,10,35,10.40
2019,04,05,10,36,10.40
2019,04,05,10,37,10.60
2019,04,05,10,38,10.60
2019,04,05,10,39,10.60
2019,04,05,10,40,10.60
2019,04,05,10,41,10.60
2019,04,05,10,42,10.60
2019,04,05,10,43,10.60
2019,04,05,10,44,10.60
2019,04,05,10,45,10.60
2019,04,05,10,46,10.60
2019,04,05,10,47,10.60
2019,04,05,10,48,10.60
2019,04,05,10,49,10.60
2019,04,05,10,50,10.60
2019,04,05,10,51,10.60
2019,04,05,10,52,10.60
2019,04,05,10,53,10.60
2019,04,05,10,54,10.60
2019,04,05,10,55,10.60
2019,04,05,10,56,10.60
2019,04,05,10,57,10.60
2019,04,05,10,58,10.60
2019,04,05,10,59,10.60
2019,04,05,11,00,10.60
2019,04,05,11,01,10.60
2019,04,05,11,02,10.60
2019,04,05,11,03,10.60
2019,04,05,11,04,10.60
2019,04,05,11,05,10.60
2019,04,05,11,06,10.60
2019,04,05,11,07,10.60
2019,04,05,11,08,10.60
2019,04,05,11,09,10.60
2019,04,05,11,10,10.60
2019,04,05,11,11,10.60
2019,04,05,11,12,10.60
2019,04,05,11,13,10.70
2019,04,05,11,14,10.70
2019,04,05,11,15,10.70
2019,04,05,11,16,10.80
2019,04,05,11,17,10.80
2019,04,05,11,18,10.80
2019,04,05,11,19,10.80
2019,04,05,11,20,10.80
2019,04,05,11,21,10.80
2019,04,05,11,22,10.80
2019,04,05,11,23,10.80
2019,04,05,11,24,10.80
2019,04,05,11,25,10.80
2019,04,05,11,26,10.80
2019,04,05,11,27,10.80
2019,04,05,11,28,10.90
2019,04,05,11,29,10.90
2019,04,05,11,30,10.90
2019,04,05,11,31,10.90
2019,04,05,11,32,10.90
2019,04,05,11,33,10.90
2019,04,05,11,34,10.90
2019,04,05,11,35,10.90
2019,04,05,11,36,10.90
2019,04,05,11,37,10.90
2019,04,05,11,38,10.90
2019,04,05,11,39,10.90
2019,04,05,11,40,10.90
2019,04,05,11,41,10.90
2019,04,05,11,42,10.90
2019,04,05,11,43,10.90
2019,04,05,11,44,10.90
2019,04,05,11,45,10.90
2019,04,05,11,46,10.90
2019,04,05,11,47,10.90
2019,04,05,11,48,10.90
2019,04,05,11,49,10.90
2019,04,05,11,50,10.90
2019,04,05,11,51,10.90
2019,04,05,11,52,10.80
2019,04,05,11,53,10.80
2019,04,05,11,54,10.80
2019,04,05,11,55,10.90
2019,04,05,11,56,10.90
2019,04,05,11,57,10.90
2019,04,05,11,58,10.90
2019,04,05,11,59,10.90
2019,04,05,12,00,10.90
2019,04,05,12,01,10.90
2019,04,05,12,02,10.90
2019,04,05,12,03,10.90
2019,04,05,12,04,10.80
2019,04,05,12,05,10.80
2019,04,05,12,06,10.80
2019,04,05,12,07,10.80
2019,04,05,12,08,10.80
2019,04,05,12,09,10.90
2019,04,05,12,10,10.90
2019,04,05,12,11,10.90
2019,04,05,12,12,10.90
2019,04,05,12,13,11.10
2019,04,05,12,14,11.10
2019,04,05,12,15,11.10
2019,04,05,12,16,11.10
2019,04,05,12,17,11.20
2019,04,05,12,19,11.30
2019,04,05,12,20,11.30
2019,04,05,12,22,11.40
2019,04,05,12,23,11.40
2019,04,05,12,24,11.40
2019,04,05,12,26,11.60
2019,04,05,12,27,11.60
2019,04,05,12,28,11.60
2019,04,05,12,29,11.60
2019,04,05,12,30,11.60
2019,04,05,12,32,11.60
2019,04,05,12,33,11.60
2019,04,05,12,34,11.60
2019,04,05,12,36,11.70
2019,04,05,12,37,11.70
2019,04,05,12,38,11.70
2019,04,05,12,39,11.80
2019,04,05,12,41,11.80
2019,04,05,12,42,11.80
2019,04,05,12,43,11.80
2019,04,05,12,44,11.80
2019,04,05,12,46,11.80
2019,04,05,12,47,11.80
2019,04,05,12,48,11.80
2019,04,05,12,49,11.80
2019,04,05,12,51,11.80
2019,04,05,12,52,11.80
2019,04,05,12,53,11.80
2019,04,05,12,54,11.90
2019,04,05,12,56,12.00
2019,04,05,12,57,12.00
2019,04,05,12,58,12.00
2019,04,05,12,59,12.00
2019,04,05,13,01,12.00
2019,04,05,13,02,11.90
2019,04,05,13,03,11.90
2019,04,05,13,04,11.90
2019,04,05,13,06,11.90
2019,04,05,13,07,11.90
2019,04,05,13,08,11.80
2019,04,05,13,09,11.80
2019,04,05,13,11,11.80
2019,04,05,13,12,11.80
2019,04,05,13,13,11.90
2019,04,05,13,14,11.90
2019,04,05,13,16,11.90
2019,04,05,13,17,11.90
2019,04,05,13,18,11.90
2019,04,05,13,19,11.90
2019,04,05,13,21,11.90
2019,04,05,13,22,12.00
2019,04,05,13,23,12.00
2019,04,05,13,24,12.00
2019,04,05,13,26,12.00
2019,04,05,13,27,12.00
2019,04,05,13,28,12.00
2019,04,05,13,29,12.00
2019,04,05,13,31,11.90
2019,04,05,13,32,11.90
2019,04,05,13,33,12.00
2019,04,05,13,34,12.00
2019,04,05,13,36,12.00
2019,04,05,13,37,12.10
2019,04,05,13,38,12.10
2019,04,05,13,39,12.10
2019,04,05,13,41,12.10
2019,04,05,13,42,12.20
2019,04,05,13,43,12.20
2019,04,05,13,44,12.20
2019,04,05,13,45,12.20
2019,04,05,13,46,12.20
2019,04,05,13,47,12.20
2019,04,05,13,48,12.20
2019,04,05,13,49,12.20
2019,04,05,13,50,12.20
2019,04,05,13,51,12.20
2019,04,05,13,52,12.20
2019,04,05,13,53,12.20
2019,04,05,13,54,12.30
2019,04,05,13,55,12.30
2019,04,05,13,56,12.30
2019,04,05,13,57,12.30
2019,04,05,13,58,12.30
2019,04,05,13,59,12.20
2019,04,05,14,00,12.20
2019,04,05,14,01,12.20
2019,04,05,14,02,12.20
2019,04,05,14,03,12.20
2019,04,05,14,04,12.20
2019,04,05,14,05,12.20
2019,04,05,14,06,12.20
2019,04,05,14,07,12.30
2019,04,05,14,08,12.30
2019,04,05,14,09,12.30
2019,04,05,14,10,12.30
2019,04,05,14,11,12.30
2019,04,05,14,12,12.30
2019,04,05,14,13,12.30
2019,04,05,14,14,12.30
2019,04,05,14,15,12.30
2019,04,05,14,16,12.30
2019,04,05,14,17,12.20
2019,04,05,14,18,12.20
2019,04,05,14,19,12.10
2019,04,05,14,20,12.10
2019,04,05,14,21,12.10
2019,04,05,14,22,12.10
2019,04,05,14,23,12.10
2019,04,05,14,24,12.10
2019,04,05,14,25,12.10
2019,04,05,14,26,12.10
2019,04,05,14,27,12.10
2019,04,05,14,28,12.20
2019,04,05,14,29,12.20
2019,04,05,14,30,12.30
2019,04,05,14,31,12.30
2019,04,05,14,32,12.30
2019,04,05,14,33,12.30
2019,04,05,14,34,12.30
2019,04,05,14,35,12.30
2019,04,05,14,36,12.30
2019,04,05,14,37,12.30
2019,04,05,14,38,12.40
2019,04,05,14,39,12.40
2019,04,05,14,40,12.50
2019,04,05,14,41,12.50
2019,04,05,14,42,12.50
2019,04,05,14,43,12.50
2019,04,05,14,44,12.50
2019,04,05,14,45,12.50
2019,04,05,14,46,12.50
2019,04,05,14,47,12.50
2019,04,05,14,48,12.40
2019,04,05,14,49,12.40
2019,04,05,14,50,12.40
2019,04,05,14,51,12.40
2019,04,05,14,52,12.40
2019,04,05,14,53,12.40
2019,04,05,14,54,12.30
2019,04,05,14,55,12.30
2019,04,05,14,56,12.30
2019,04,05,14,57,12.40
2019,04,05,14,58,12.40
2019,04,05,14,59,12.50
2019,04,05,15,00,12.50
2019,04,05,15,01,12.60
2019,04,05,15,02,12.60
2019,04,05,15,03,12.70
2019,04,05,15,04,12.80
2019,04,05,15,05,12.80
2019,04,05,15,06,12.90
2019,04,05,15,07,13.00
2019,04,05,15,08,13.20
2019,04,05,15,09,13.30
2019,04,05,15,10,13.40
2019,04,05,15,11,13.50
2019,04,05,15,12,13.60
2019,04,05,15,13,13.70
2019,04,05,15,14,13.70
2019,04,05,15,15,13.80
2019,04,05,15,16,13.90
2019,04,05,15,17,13.90
2019,04,05,15,18,14.00
2019,04,05,15,19,14.10
2019,04,05,15,20,14.10
2019,04,05,15,21,14.20
2019,04,05,15,22,14.20
2019,04,05,15,23,14.20
2019,04,05,15,24,14.20
2019,04,05,15,25,14.20
2019,04,05,15,26,14.20
2019,04,05,15,27,14.20
2019,04,05,15,28,14.20
2019,04,05,15,29,14.20
2019,04,05,15,30,14.20
2019,04,05,15,31,14.20
2019,04,05,15,32,14.20
2019,04,05,15,33,14.20
2019,04,05,15,34,14.20
2019,04,05,15,35,14.20
2019,04,05,15,36,14.20
2019,04,05,15,37,14.20
2019,04,05,15,38,14.20
2019,04,05,15,39,14.20
2019,04,05,15,40,14.20
2019,04,05,15,41,14.20
2019,04,05,15,42,14.20
2019,04,05,15,43,14.20
2019,04,05,15,44,14.10
2019,04,05,15,45,14.10
2019,04,05,15,46,14.00
2019,04,05,15,47,13.90
2019,04,05,15,48,13.90
2019,04,05,15,49,13.80
2019,04,05,15,50,13.80
2019,04,05,15,51,13.70
2019,04,05,15,52,13.70
2019,04,05,15,53,13.70
2019,04,05,15,54,13.70
2019,04,05,15,55,13.60
2019,04,05,15,56,13.60
2019,04,05,15,57,13.50
2019,04,05,15,58,13.50
2019,04,05,15,59,13.40
2019,04,05,16,00,13.40
2019,04,05,16,01,13.40
2019,04,05,16,02,13.30
2019,04,05,16,03,13.30
2019,04,05,16,04,13.30
2019,04,05,16,05,13.30
2019,04,05,16,06,13.30
2019,04,05,16,07,13.20
2019,04,05,16,08,13.20
2019,04,05,16,09,13.10
2019,04,05,16,10,13.00
2019,04,05,16,11,12.90
2019,04,05,16,12,12.80
2019,04,05,16,13,12.80
2019,04,05,16,14,12.70
2019,04,05,16,15,12.60
2019,04,05,16,16,12.50
2019,04,05,16,17,12.40
2019,04,05,16,18,12.40
2019,04,05,16,19,12.30
2019,04,05,16,20,12.30
2019,04,05,16,21,12.20
2019,04,05,16,22,12.10
2019,04,05,16,23,12.10
2019,04,05,16,24,11.90
2019,04,05,16,25,11.80
2019,04,05,16,26,11.80
2019,04,05,16,27,11.80
2019,04,05,16,28,11.70
2019,04,05,16,29,11.60
2019,04,05,16,31,11.60
2019,04,05,16,33,11.40
2019,04,05,16,34,11.40
2019,04,05,16,36,11.40
2019,04,05,16,37,11.40
2019,04,05,16,38,11.40
2019,04,05,16,39,11.40
2019,04,05,16,41,11.30
2019,04,05,16,42,11.30
2019,04,05,16,43,11.30
2019,04,05,16,44,11.40
2019,04,05,16,46,11.40
2019,04,05,16,47,11.40
2019,04,05,16,48,11.40
2019,04,05,16,49,11.40
2019,04,05,16,51,11.30
2019,04,05,16,52,11.40
2019,04,05,16,53,11.40
2019,04,05,16,54,11.40
2019,04,05,16,56,11.40
2019,04,05,16,57,11.40
2019,04,05,16,58,11.40
2019,04,05,16,59,11.40
2019,04,05,17,01,11.40
2019,04,05,17,02,11.40
2019,04,05,17,03,11.40
2019,04,05,17,04,11.40
2019,04,05,17,06,11.40
2019,04,05,17,07,11.40
2019,04,05,17,08,11.40
2019,04,05,17,09,11.40
2019,04,05,17,11,11.40
2019,04,05,17,12,11.60
2019,04,05,17,13,11.60
2019,04,05,17,14,11.60
2019,04,05,17,16,11.60
2019,04,05,17,17,11.60
2019,04,05,17,18,11.60
2019,04,05,17,19,11.70
2019,04,05,17,21,11.80
2019,04,05,17,22,12.00
2019,04,05,17,23,12.10
2019,04,05,17,24,12.20
2019,04,05,17,26,12.40
2019,04,05,17,27,12.50
2019,04,05,17,28,12.60
2019,04,05,17,29,12.70
2019,04,05,17,31,12.80
2019,04,05,17,32,12.90
2019,04,05,17,33,12.90
2019,04,05,17,34,13.00
2019,04,05,17,36,13.10
2019,04,05,17,37,13.20
2019,04,05,17,38,13.20
2019,04,05,17,39,13.20
2019,04,05,17,41,13.30
2019,04,05,17,42,13.30
2019,04,05,17,43,13.30
2019,04,05,17,44,13.30
2019,04,05,17,46,13.30
2019,04,05,17,47,13.30
2019,04,05,17,48,13.30
2019,04,05,17,49,13.20
2019,04,05,17,51,13.20
2019,04,05,17,52,13.20
2019,04,05,17,53,13.20
2019,04,05,17,54,13.10
2019,04,05,17,55,13.10
2019,04,05,17,56,13.10
2019,04,05,17,57,13.00
2019,04,05,17,58,12.90
2019,04,05,17,59,12.80
2019,04,05,18,00,12.80
2019,04,05,18,01,12.80
2019,04,05,18,02,12.80
2019,04,05,18,03,12.80
2019,04,05,18,04,12.80
2019,04,05,18,06,12.80
2019,04,05,18,07,12.80
2019,04,05,18,08,12.80
2019,04,05,18,09,12.80
2019,04,05,18,10,12.70
2019,04,05,18,11,12.70
2019,04,05,18,12,12.70
2019,04,05,18,13,12.70
2019,04,05,18,14,12.70
2019,04,05,18,15,12.70
2019,04,05,18,16,12.70
2019,04,05,18,17,12.70
2019,04,05,18,18,12.60
2019,04,05,18,19,12.60
2019,04,05,18,20,12.60
2019,04,05,18,21,12.50
2019,04,05,18,22,12.50
2019,04,05,18,23,12.50
2019,04,05,18,24,12.50
2019,04,05,18,25,12.50
2019,04,05,18,26,12.40
2019,04,05,18,27,12.40
2019,04,05,18,28,12.40
2019,04,05,18,29,12.40
2019,04,05,18,30,12.40
2019,04,05,18,32,12.40
2019,04,05,18,33,12.40
2019,04,05,18,34,12.40
2019,04,05,18,35,12.40
2019,04,05,18,36,12.40
2019,04,05,18,37,12.40
2019,04,05,18,38,12.40
2019,04,05,18,39,12.40
2019,04,05,18,40,12.40
2019,04,05,18,41,12.40
2019,04,05,18,42,12.40
2019,04,05,18,43,12.30
2019,04,05,18,44,12.30
2019,04,05,18,45,12.30
2019,04,05,18,46,12.20
2019,04,05,18,47,12.20
2019,04,05,18,48,12.10
2019,04,05,18,49,12.10
2019,04,05,18,50,12.00